Flag Weather past 2 weeks in Klagenfurt, Carinthia, Austria

Now
43 °F

Partly sunny.


Feels Like: 43 °F
Forecast: 44 / 50 °F
Wind: 1 mph from North

Location: Klagenfurt-Flughafen

Current Time: Nov 28, 2014 at 3:06:08 PM

Latest Report: Nov 28, 2014 at 2:20 PM


Visibility: 5 mi

Pressure: 29.98 "Hg

Humidity: 87%

Dew point: 39 °F

Location of KlagenfurtLocation

Historic Weather in Klagenfurt — Graph

°F

Klagenfurt temperature yesterday

Maximum temperature yesterday: 41 °F (at 1:20 PM)
Minimum temperature yesterday: 36 °F (at 5:20 AM)
Average temperature yesterday: 38 °F

Past Weeks' High & Low Weather Summary

 TemperatureHumidityPressure
High57 °F (Nov 16, 2:50 PM)100% (Nov 14, 10:50 PM)30.39 "Hg (Nov 14, 10:50 PM)
Low34 °F (Nov 22, 10:20 PM)55% (Nov 16, 3:20 PM)29.59 "Hg (Nov 16, 1:50 AM)
Average42 °F90%30.05 "Hg
* Reported Nov 13 1:20 PM — Nov 28 1:50 PM, Klagenfurt, Weather by CustomWeather, © 2014

Note: Actual official high and low records may vary slightly from our data, if they occured in-between our weather recording intervals... More about our weather records

Advertising

Klagenfurt weather history for previous 24 hours

 ConditionsComfort  
Time TempWeatherWind HumidityBarometerVisibility
1:50 PM
Nov 28
43 °FPartly sunny.1 mph87%29.98 "Hg5 mi
1:20 PM43 °FPartly sunny.1 mph81%29.98 "Hg5 mi
12:50 PM43 °FPartly sunny.2 mph81%29.98 "Hg5 mi
12:20 PM41 °FBroken clouds.3 mph87%30.01 "Hg5 mi
11:50 AM41 °FBroken clouds.1 mph87%30.01 "Hg5 mi
11:20 AM41 °FBroken clouds.2 mph87%30.01 "Hg5 mi
10:50 AM41 °FBroken clouds.2 mph87%30.01 "Hg5 mi
10:20 AM41 °FPartly sunny.2 mph87%30.01 "Hg5 mi
9:50 AM41 °FPartly sunny.1 mph81%30.01 "Hg5 mi
9:20 AM41 °FPartly sunny.2 mph81%30.01 "Hg5 mi
8:50 AM39 °FPartly sunny.1 mph87%30.01 "Hg5 mi
8:20 AM39 °FPartly sunny.1 mph87%30.01 "Hg5 mi
7:50 AM39 °FPartly sunny.No wind87%30.01 "Hg5 mi
7:20 AM39 °FPassing clouds.1 mph87%29.98 "Hg5 mi
6:50 AM39 °FPassing clouds.1 mph87%29.98 "Hg5 mi
6:20 AM39 °FPassing clouds.2 mph87%29.95 "Hg5 mi
5:50 AM39 °FPassing clouds.1 mph87%29.98 "Hg5 mi
5:20 AM39 °FPassing clouds.2 mph87%29.95 "Hg5 mi
4:50 AM39 °FPassing clouds.2 mph87%29.95 "Hg5 mi
4:20 AM39 °FPassing clouds.1 mph87%29.98 "Hg5 mi
3:50 AM39 °FPassing clouds.1 mph87%29.98 "Hg5 mi
3:20 AM39 °FOvercast.1 mph87%29.98 "Hg5 mi
2:50 AM39 °FPassing clouds.2 mph87%29.98 "Hg6 mi
2:20 AM39 °FOvercast.3 mph87%29.98 "Hg6 mi
1:50 AM39 °FOvercast.2 mph87%29.98 "Hg6 mi
1:20 AM39 °FPassing clouds.1 mph87%29.98 "Hg5 mi
12:50 AM39 °FOvercast.1 mph87%29.98 "Hg5 mi
12:20 AM39 °FPassing clouds.No wind87%29.98 "Hg5 mi
11:50 PM
Nov 27
39 °FPassing clouds.1 mph87%29.98 "Hg6 mi
11:20 PM39 °FPassing clouds.No wind87%29.98 "HgN/A
10:50 PM39 °FPassing clouds.1 mph87%29.98 "HgN/A
10:20 PM39 °FPassing clouds.2 mph87%29.98 "HgN/A
9:50 PM39 °FPassing clouds.1 mph87%29.98 "HgN/A
9:20 PM39 °FPassing clouds.2 mph87%29.98 "HgN/A
8:50 PM39 °FPassing clouds.1 mph87%29.98 "HgN/A
8:20 PM39 °FPassing clouds.1 mph87%29.98 "HgN/A
7:50 PM39 °FPassing clouds.1 mph81%29.98 "HgN/A
7:20 PM39 °FPassing clouds.1 mph81%29.98 "HgN/A
6:50 PM39 °FPassing clouds.2 mph81%29.98 "HgN/A
6:20 PM39 °FPassing clouds.2 mph81%29.95 "HgN/A
5:50 PM39 °FPassing clouds.1 mph81%29.95 "HgN/A
5:20 PM39 °FPassing clouds.1 mph87%29.95 "HgN/A
4:50 PM39 °FPassing clouds.1 mph81%29.95 "HgN/A
4:20 PM39 °FPassing clouds.1 mph75%29.95 "HgN/A
3:50 PM39 °FPartly sunny.1 mph75%29.98 "HgN/A
3:20 PM39 °FPartly sunny.1 mph81%29.95 "HgN/A
Weather by CustomWeather, © 2014

See weather overviewHow to use our weather pages